Maplewood, Minnesota, United States
Lat: 44.95N, Lon: 93W
Wx Zone: MNZ062
Local Info
Past Weather Observations for Tuesday, April 21, 2015

NOTE: This archive is for the closest National Weather Service station to Maplewood. Information may differ from the station used for current weather conditions.

Click here for Long-term Archive

Time Weather Temperature Dewpoint Humidity Pressure Winds Precip Visibility
23:53
Overcast
36°F / 2°C 21°F / -6°C 56% 29.8 in
(1009 mb)
NW 12.7 mph
(NW 20 kph)
- 10SM
22:53
Overcast
36°F / 2°C 21°F / -6°C 56% 29.8 in
(1009 mb)
NW 20.7 mph
(NW 33 kph)
- 10SM
21:53
Overcast
36°F / 2°C 21°F / -6°C 56% 29.8 in
(1009 mb)
NNW 16.1 mph
(NNW 26 kph)
- 10SM
20:53
Overcast
36°F / 2°C 23°F / -5°C 60% 29.77 in
(1008 mb)
NW 17.3 mph
(NW 28 kph)
- 10SM
19:53
Overcast
36°F / 2°C 25°F / -4°C 65% 29.74 in
(1007 mb)
NW 16.1 mph
(NW 26 kph)
- 10SM
18:53
Partly Cloudy
36°F / 2°C 27°F / -3°C 70% 29.71 in
(1006 mb)
NW 13.8 mph
(NW 22 kph)
0.00 in
(0.00 mm)
10SM
17:53
Mostly Cloudy
37°F / 3°C 27°F / -3°C 65% 29.71 in
(1006 mb)
NW 17.3 mph
(NW 28 kph)
0.00 in
(0.00 mm)
10SM
16:53
Partly Cloudy
39°F / 4°C 25°F / -4°C 56% 29.68 in
(1005 mb)
NW 19.6 mph
(NW 32 kph)
0.00 in
(0.00 mm)
10SM
15:53
Mostly Cloudy
39°F / 4°C 28°F / -2°C 65% 29.65 in
(1004 mb)
NW 26.5 mph
(NW 43 kph)
0.00 in
(0.00 mm)
10SM
14:53
Overcast
Light Rain
39°F / 4°C 30°F / -1°C 70% 29.65 in
(1004 mb)
NW 20.7 mph
(NW 33 kph)
0.00 in
(0.00 mm)
10SM
13:53
Overcast
41°F / 5°C 25°F / -4°C 53% 29.62 in
(1003 mb)
NW 18.4 mph
(NW 30 kph)
0.00 in
(0.00 mm)
10SM
12:53
Overcast
39°F / 4°C 27°F / -3°C 61% 29.62 in
(1003 mb)
NW 20.7 mph
(NW 33 kph)
0.00 in
(0.00 mm)
10SM
11:53
Overcast
Light Snow
37°F / 3°C 25°F / -4°C 60% 29.59 in
(1002 mb)
NW 16.1 mph
(NW 26 kph)
0.00 in
(0.00 mm)
9SM
10:53
Overcast
41°F / 5°C 23°F / -5°C 49% 29.59 in
(1002 mb)
NW 23 mph
(NW 37 kph)
- 10SM
09:53
Overcast
43°F / 6°C 28°F / -2°C 57% 29.56 in
(1001 mb)
NW 23 mph
(NW 37 kph)
0.00 in
(0.00 mm)
10SM
08:53
Overcast
Light Snow
37°F / 3°C 27°F / -3°C 65% 29.56 in
(1001 mb)
NW 17.3 mph
(NW 28 kph)
0.00 in
(0.00 mm)
8SM
07:53
Overcast
37°F / 3°C 25°F / -4°C 60% 29.56 in
(1001 mb)
WNW 20.7 mph
(WNW 33 kph)
- 10SM
06:53
Mostly Cloudy
36°F / 2°C 25°F / -4°C 65% 29.56 in
(1001 mb)
WNW 16.1 mph
(WNW 26 kph)
- 10SM
05:53
Overcast
34°F / 1°C 23°F / -5°C 65% 29.56 in
(1001 mb)
WNW 17.3 mph
(WNW 28 kph)
- 10SM
04:53
Overcast
36°F / 2°C 25°F / -4°C 65% 29.53 in
(1000 mb)
NW 25.3 mph
(NW 41 kph)
- 10SM
03:53
Overcast
36°F / 2°C 25°F / -4°C 65% 29.53 in
(1000 mb)
WNW 16.1 mph
(WNW 26 kph)
- 10SM
02:53
Overcast
36°F / 2°C 27°F / -3°C 70% 29.53 in
(1000 mb)
WNW 20.7 mph
(WNW 33 kph)
- 10SM
01:53
Overcast
36°F / 2°C 25°F / -4°C 65% 29.53 in
(1000 mb)
NW 19.6 mph
(NW 32 kph)
- 10SM
00:53
Overcast
36°F / 2°C 28°F / -2°C 75% 29.53 in
(1000 mb)
W 13.8 mph
(W 22 kph)
- 10SM
Time Weather Temperature Dewpoint Humidity Pressure Winds Precip Visibility


Weather for websites

WeatherForYou.com, LLC is not responsible for any damages or problems caused by this service. Current weather conditions are obtained from the closest station including government and personal stations which may have varying degrees of accuracy. Weather forecasts are derived from the NOAA NDFD. Like all things, this site belongs to Jesus Christ... He just trusts us to maintain it. If you have any questions or comments email webmaster@weatherforyou.com

Copyright © 2015, WeatherForYou.com LLC. All rights reserved.